Preview of NWS' New Version of Forecast
This preview is not operational and should not be used for support decisions.

Regional Weather Roundup (RWR)

Issued by National Weather Service (NWS)

                            
000
ASUS43 KTOP 170208
RWRKS 

WEATHER ROUNDUP FOR KANSAS
NATIONAL WEATHER SERVICE GOODLAND KS
800 PM CST SAT FEB 16 2019

NOTE:  "FAIR" INDICATES FEW OR NO CLOUDS BELOW 12,000 FEET WITH NO
SIGNIFICANT WEATHER AND/OR OBSTRUCTIONS TO VISIBILITY.

KSZ001>006-013>018-027>032-041>047-170300-
NORTHWEST KANSAS
  
CITY           SKY/WX    TMP DP  RH WIND       PRES   REMARKS
GOODLAND       CLOUDY    24  22  91 W8        29.63R                  
HAYS           LGT SNOW  19  18  95 NW3       29.75R FOG              
HILL CITY      CLOUDY    18  16  92 NE3       29.71R                  
RUSSELL        CLOUDY    20  20 100 NE6       29.71R FOG              
$$

KSZ061>065-074>080-084>089-170300-
SOUTHWEST KANSAS
  
CITY           SKY/WX    TMP DP  RH WIND       PRES   REMARKS
DODGE CITY     LGT SNOW  22  18  85 NE7       29.64F FOG              
ELKHART        CLOUDY    28  28  99 N14       29.67R FOG     WCI  17  
GARDEN CITY    FOG       22  20  92 N9        29.68R VSB 3/4          
GREAT BEND     CLOUDY    22  20  92 CALM      29.74R FOG              
LIBERAL        MIX PCPN  23  22  96 N15       29.70R FOG     WCI  10  
PRATT          CLOUDY    24  22  94 W5        29.73R FOG              
$$

KSZ066>073-081>083-090>101-170300-
SOUTHEAST KANSAS
  
CITY           SKY/WX    TMP DP  RH WIND       PRES   REMARKS
CHANUTE        CLOUDY    29  27  92 E9        29.71S FOG              
COFFEYVILLE    CLOUDY    31  29  92 E7        29.70R FOG              
HUTCHINSON     CLOUDY    25  25 100 S5        29.69F FOG              
MEDICINE LODGE   N/A     24  23  96 NW3       29.74R                  
NEWTON         CLOUDY    24  23  96 S6        29.71R FOG              
PARSONS        CLOUDY    30  29  96 VRB5      29.71S FOG              
WICHITA INTL   CLOUDY    26  26 100 CALM      29.71R FOG              
WICHITA JABRA  CLOUDY    25  23  92 CALM      29.71R FOG              
WICHITA MCCONL CLOUDY    25  25 100 CALM      29.70                   
WINFIELD       CLOUDY    26  26 100 CALM      29.72R FOG              
$$

KSZ007>012-019>026-033>040-048>060-102>105-170300-
NORTHEAST KANSAS
  
CITY           SKY/WX    TMP DP  RH WIND       PRES   REMARKS
CONCORDIA      CLOUDY    18  17  96 NE6       29.74S FOG              
EMPORIA        CLOUDY    23  23 100 SE5       29.72R FOG              
LAWRENCE       CLOUDY    24  17  74 E10       29.77F WCI  14          
MANHATTAN      CLOUDY    23  21  92 NE6       29.75R FOG              
MARYSVILLE     DRIZZLE   21  19  93 E9        29.75F                  
OLATHE IND     FLURRIES  24  16  71 E8        29.75R                  
OLATHE EXE     CLOUDY    23  16  74 E6        29.74F                  
SALINA         CLOUDY    22  22 100 E3        29.75R FOG              
TOPEKA BILLARD LGT SNOW  23  18  81 E8        29.76F                  
TOPEKA FORBES  LGT SNOW  24  18  77 E9        29.72F                  
$$